Temperature
6 5 5 5 6 6 6 6 6 6 6 6 5 5 5 5 4 4 4 4 5 5 6 6 6 6 6 7 7 7 7 7 7 7 7 7 7 7 7 7 7 7 7 7
5 4 5 5 6 6 6 6 5 5 5 5 4 4 4 4 3 4 3 4 4 5 5 5 6 6 6 6 6 6 6 6 6 6 6 6 6 6 6 6 6 6 6 6
5 5 5 5 5 5 5 5 5 5 5 4 4 4 4 3 3 3 3 3 4 4 5 5 5 5 5 5 5 5 5 5 6 6 6 6 6 6 6 6 6 6 6 6
4 4 5 5 5 5 5 5 5 5 4 3 4 4 4 3 2 2 2 3 3 4 4 4 4 5 5 5 5 4 4 5 5 5 5 5 5 5 5 6 5 5 5 5
4 4 4 4 5 4 4 4 4 4 3 3 3 3 3 2 2 2 2 2 3 3 3 4 4 4 4 4 4 4 4 4 4 4 4 5 5 5 5 5 5 5 5 5
4 4 4 4 4 4 3 3 3 2 2 3 2 3 3 2 3 2 2 2 3 3 3 3 3 3 3 3 3 3 3 3 4 4 4 4 4 4 4 4 4 4 4 4
3 4 3 3 3 3 3 3 3 3 2 3 2 2 3 2 2 2 2 2 2 2 2 2 2 2 3 3 3 3 3 3 3 3 3 3 3 3 4 4 4 4 4 4
2 3 3 2 3 2 2 3 3 3 2 2 1 1 2 1 1 1 1 1 1 1 1 2 1 1 2 2 2 2 2 2 3 3 3 3 3 3 3 3 3 3 3 3
2 2 2 2 2 2 2 2 2 1 1 1 1 0 0 1 0 -0 0 0 0 1 1 1 1 1 1 1 1 2 2 2 2 2 2 2 2 2 2 2 2 2 2 2
2 2 2 2 2 2 1 1 0 1 2 2 2 1 1 1 1 -0 -1 -1 -0 0 0 0 1 1 1 1 1 1 1 1 1 1 1 2 2 2 2 2 2 2 2 2
2 1 1 1 1 1 0 0 0 -0 0 1 1 2 1 0 -0 -1 -1 -1 -1 -0 0 0 0 0 0 0 0 0 0 1 1 1 1 1 1 1 1 1 1 1 1 1
1 0 -0 0 0 0 0 -0 -1 1 0 -1 -0 1 0 -1 -1 -1 -1 -1 -1 -0 -0 -0 -0 -0 -1 -1 -0 -0 -0 -0 0 0 0 0 0 0 0 0 0 1 1 1
0 -0 0 1 1 -1 -1 -1 -1 -1 -1 -2 -1 1 -1 -2 -2 -2 -2 -1 -1 -1 -1 -1 -1 -1 -1 -1 -1 -1 -1 -1 -0 -1 -0 -0 -0 -0 -0 -0 -0 -0 -0 -0
1 -1 0 1 1 -0 -1 -1 -1 -1 -1 -1 -1 0 -0 -1 -2 -3 -2 -2 -1 -1 -1 -1 -1 -2 -2 -2 -2 -2 -2 -1 -1 -1 -1 -1 -1 -1 -1 -1 -1 -1 -1 -1
-0 -1 -1 -1 -0 -1 -1 -1 -1 -1 -1 -1 -0 -1 -0 -2 -2 -2 -2 -2 -2 -2 -1 -1 -2 -2 -2 -2 -2 -2 -2 -2 -2 -2 -2 -1 -1 -1 -2 -2 -2 -1 -1 -1
-2 -1 -1 -1 -1 -1 -1 -1 -1 -1 -1 -2 -2 -2 -2 -3 -2 -3 -3 -3 -3 -2 -2 -2 -2 -2 -3 -3 -3 -3 -3 -2 -3 -3 -2 -2 -2 -2 -2 -2 -2 -2 -2 -2
-2 -2 -2 -1 -2 -2 -2 -2 -2 -2 -3 -3 -2 -2 -3 -4 -4 -3 -3 -3 -3 -2 -2 -3 -3 -3 -3 -3 -3 -3 -3 -3 -3 -3 -3 -3 -3 -3 -3 -3 -3 -3 -3 -2
-3 -3 -2 -2 -2 -1 -1 -3 -2 -2 -3 -4 -3 -4 -4 -4 -3 -3 -2 -3 -3 -3 -3 -3 -3 -4 -4 -4 -4 -4 -4 -4 -4 -4 -4 -4 -3 -3 -3 -3 -3 -3 -3 -3
-3 -3 -3 -3 -3 -2 -2 -3 -4 -4 -3 -4 -4 -5 -5 -5 -5 -4 -3 -3 -3 -4 -3 -4 -4 -4 -4 -4 -4 -4 -4 -4 -4 -4 -4 -4 -4 -4 -4 -4 -4 -4 -4 -3
-5 -4 -3 -3 -3 -2 -2 -4 -5 -4 -3 -4 -5 -5 -5 -6 -5 -5 -4 -4 -4 -4 -4 -4 -4 -5 -5 -5 -5 -5 -5 -5 -5 -5 -4 -4 -4 -4 -4 -4 -4 -4 -4 -4
-5 -5 -4 -4 -4 -3 -4 -5 -5 -3 -3 -5 -6 -6 -6 -6 -5 -5 -5 -5 -5 -5 -5 -5 -5 -5 -5 -5 -6 -5 -5 -5 -5 -5 -5 -5 -5 -5 -5 -5 -5 -5 -5 -5
-5 -5 -5 -4 -4 -3 -6 -6 -5 -5 -5 -6 -6 -6 -6 -6 -6 -6 -6 -6 -6 -6 -6 -6 -6 -6 -6 -6 -6 -6 -6 -6 -6 -6 -6 -6 -6 -6 -6 -6 -6 -6 -6 -6
-6 -5 -5 -5 -4 -5 -6 -6 -5 -5 -6 -6 -6 -6 -6 -7 -7 -7 -7 -7 -7 -6 -6 -6 -6 -6 -7 -7 -7 -7 -7 -7 -7 -6 -6 -6 -6 -6 -6 -7 -7 -6 -6 -6
-7 -8 -7 -7 -6 -7 -6 -6 -6 -6 -6 -6 -6 -6 -6 -7 -7 -7 -7 -7 -7 -7 -7 -7 -7 -7 -7 -7 -7 -7 -7 -7 -7 -7 -7 -7 -7 -7 -7 -7 -7 -7 -7 -7
-7 -8 -8 -8 -8 -8 -7 -6 -6 -6 -6 -6 -7 -7 -7 -7 -7 -7 -7 -7 -8 -8 -8 -8 -8 -8 -8 -8 -8 -8 -8 -8 -8 -8 -8 -7 -7 -7 -7 -8 -8 -8 -8 -8
-9 -9 -8 -7 -7 -8 -7 -6 -6 -7 -7 -7 -7 -7 -7 -7 -8 -8 -8 -8 -8 -8 -8 -8 -8 -8 -8 -8 -8 -8 -8 -8 -8 -8 -8 -8 -8 -8 -8 -8 -8 -8 -8 -8
Wind_Speed
3 3 3 5 6 3 4 4 4 4 1 2 5 7 6 3 3 4 4 4 4 4 1 1 1 1 2 2 2 3 2 2 2 2 2 3 3 2 2 3 6 7 7 7
3 2 4 2 2 2 3 4 4 3 1 1 3 6 6 4 4 5 5 5 4 3 1 1 1 2 1 1 1 2 3 3 2 2 2 2 2 2 2 3 4 6 7 7
4 2 1 2 1 1 4 6 5 3 3 1 2 5 4 3 2 2 3 3 3 3 3 2 1 1 1 1 1 2 1 2 2 2 1 1 2 2 1 2 2 4 6 7
1 2 1 2 2 3 4 3 3 3 1 3 1 4 5 3 2 3 4 4 4 3 2 2 1 1 2 2 1 1 1 1 2 2 3 3 3 3 3 2 2 3 5 6
2 1 1 3 3 3 3 1 1 2 3 2 2 3 6 2 4 6 6 5 4 3 3 2 2 2 1 1 0 0 1 1 1 2 3 3 3 2 1 2 3 2 3 5
2 1 2 2 1 2 2 3 3 3 2 4 5 5 6 5 6 5 5 4 3 3 2 1 1 0 1 1 1 1 0 0 1 2 2 3 4 3 2 2 3 2 2 4
3 2 1 1 2 2 3 4 2 3 1 6 2 4 8 6 5 5 5 4 3 2 1 1 0 0 1 1 1 1 0 1 1 1 2 3 4 4 4 4 4 3 2 3
1 4 2 1 3 3 3 5 5 4 4 4 2 7 6 4 3 2 3 2 2 2 1 1 1 1 1 0 1 1 1 1 1 1 2 2 3 3 3 3 3 4 4 4
3 4 1 0 0 4 3 3 3 3 1 3 5 6 7 3 3 2 2 2 3 3 2 1 1 1 1 1 1 1 1 2 2 2 2 2 3 3 3 3 3 3 3 3
4 3 3 2 2 1 3 5 3 3 3 5 6 5 5 5 5 3 3 3 3 2 2 2 1 2 2 1 1 1 1 2 2 2 2 2 2 3 2 3 3 3 3 3
3 3 3 1 3 5 3 3 3 3 3 4 5 7 4 6 5 5 4 3 3 3 3 3 2 2 2 1 1 1 2 2 2 2 2 2 2 1 1 2 3 3 3 4
3 3 3 6 4 3 5 6 6 5 5 4 4 7 2 3 3 3 3 3 3 3 2 2 2 1 1 1 1 2 2 2 2 2 2 2 2 1 1 2 2 2 3 3
4 3 1 4 2 0 2 3 5 4 3 4 5 8 2 2 3 3 3 3 3 3 2 2 1 2 2 2 2 2 2 3 2 2 2 2 2 2 2 3 2 2 3 3
3 4 6 9 6 4 5 5 6 6 5 7 11 11 8 6 5 5 5 4 4 3 3 2 3 3 2 2 2 3 3 3 2 2 2 2 2 2 2 2 2 2 3 3
3 4 6 8 7 5 7 8 8 11 11 11 12 12 14 9 7 6 5 5 4 4 4 4 4 3 3 3 3 3 3 3 2 2 2 3 3 2 2 2 2 2 2 3
2 4 3 7 6 6 9 10 11 12 11 12 13 16 10 6 4 5 6 6 6 6 6 5 4 4 4 4 4 3 3 3 2 2 3 3 2 2 2 2 2 2 2 2
3 3 3 6 4 3 9 10 10 7 8 9 13 14 6 6 7 8 8 7 7 7 6 5 5 5 5 4 4 4 4 3 2 2 2 2 2 2 2 3 2 3 3 3
5 4 3 3 1 9 8 2 6 9 10 10 9 8 7 8 8 7 6 5 6 5 5 5 4 4 4 3 3 3 2 2 2 2 3 3 2 3 3 3 3 3 3 3
5 5 3 3 5 9 7 3 3 5 8 7 9 9 7 3 4 5 3 3 4 4 4 4 4 3 3 2 2 1 1 2 2 2 3 3 3 3 3 3 3 3 3 3
2 3 4 4 5 7 6 2 1 2 7 3 5 7 5 0 3 6 3 4 4 3 3 3 3 2 2 2 1 1 2 2 3 3 3 3 3 3 4 4 3 2 2 3
3 3 6 7 7 8 5 2 3 4 6 4 3 4 3 4 5 4 4 4 3 3 3 2 2 2 2 1 0 1 2 3 3 3 2 2 3 3 3 2 2 2 2 2
7 6 6 5 6 9 2 4 6 6 3 2 2 2 3 3 3 4 4 3 3 3 3 2 2 2 2 1 0 1 3 3 2 2 2 2 2 2 1 1 1 2 2 2
6 7 5 7 7 3 3 4 3 2 3 3 3 3 2 3 4 4 4 4 3 3 2 2 1 2 2 2 1 1 3 2 2 2 2 2 1 1 1 1 1 1 2 2
4 2 3 5 7 4 5 4 3 2 3 4 4 3 3 3 4 4 4 4 3 3 2 1 1 2 3 3 2 2 2 2 1 1 2 1 1 1 1 1 1 1 2 2
4 4 4 6 6 5 4 4 4 4 4 3 3 3 3 2 3 3 3 3 3 3 2 1 1 2 3 3 3 3 2 1 1 1 1 1 1 0 1 1 1 2 2 3
4 5 5 7 4 4 5 3 3 3 4 4 3 3 2 2 3 3 3 3 2 2 2 2 2 2 3 3 3 3 2 1 1 1 1 1 1 1 1 1 2 3 3 4
Wind_Direction
44 90 204 221 214 209 186 199 237 248 272 213 226 254 265 239 192 199 206 205 216 232 262 47 58 86 91 105 123 140 139 135 126 143 162 163 180 183 169 161 163 161 157 154
58 244 244 213 193 206 201 219 249 294 326 234 256 272 266 235 211 206 208 214 222 241 320 31 46 68 89 124 152 163 174 171 172 181 198 188 172 181 177 157 161 166 164 162
174 255 243 146 122 185 224 214 227 251 339 351 321 289 249 243 194 208 214 209 224 227 237 256 268 161 127 166 201 206 206 195 189 168 133 124 125 113 146 178 178 179 173 170
241 297 120 145 192 176 248 221 211 215 238 272 214 271 261 232 245 239 238 229 240 250 236 233 231 205 204 222 215 217 205 192 191 162 153 163 176 188 199 200 192 186 177 173
258 275 146 205 233 187 217 114 148 195 188 282 225 224 273 207 243 247 238 234 242 244 228 227 218 215 226 231 179 204 190 206 193 181 178 180 185 197 190 164 183 192 186 178
261 251 192 219 260 167 141 68 55 58 107 255 217 201 266 218 220 230 223 225 233 246 245 232 229 69 27 31 37 39 84 309 232 197 190 195 194 187 182 185 196 201 214 189
323 304 300 121 75 47 90 95 18 336 283 248 201 216 251 240 229 214 213 221 233 246 242 209 238 5 7 11 16 23 17 329 302 232 215 217 210 194 198 204 204 204 222 215
258 286 257 182 168 183 190 156 172 216 238 281 251 234 253 259 273 250 225 222 228 234 236 240 237 220 236 292 353 349 312 316 301 264 249 238 222 206 212 214 212 213 224 224
194 256 325 313 49 146 153 193 178 145 213 272 261 275 295 267 290 275 234 206 219 230 242 260 266 265 268 268 287 277 290 299 287 279 267 249 230 215 216 213 209 218 231 235
169 243 280 307 70 48 151 149 117 149 200 256 276 265 254 256 253 259 243 234 242 239 255 272 258 260 274 273 288 299 288 282 288 277 263 256 248 233 218 204 209 215 222 228
157 185 296 3 198 202 141 151 160 167 191 202 266 269 236 226 228 233 238 240 240 240 240 251 257 261 272 297 307 302 308 320 309 295 290 278 269 256 232 221 218 214 217 219
164 154 247 245 237 205 180 186 169 183 230 215 241 270 282 232 243 246 253 261 266 260 263 259 257 270 282 290 306 303 307 304 290 281 280 277 272 239 232 245 237 225 224 224
148 144 290 321 315 352 230 213 196 181 167 200 222 265 307 350 317 288 267 272 277 276 280 283 258 250 258 269 284 288 293 288 286 278 271 273 271 246 241 251 251 234 226 228
140 169 201 222 238 214 241 237 203 188 215 234 236 257 282 292 292 295 283 270 267 264 268 272 263 253 256 264 267 271 286 284 282 279 270 264 260 253 247 252 253 247 231 228
148 219 236 250 255 243 249 247 220 213 220 230 250 254 265 267 265 270 277 280 281 279 280 276 271 266 265 272 275 277 285 286 279 267 270 269 269 268 255 247 251 256 253 244
172 221 239 267 257 245 262 255 236 233 236 242 261 269 267 275 271 274 273 268 264 267 270 271 272 274 268 265 269 274 278 284 269 252 263 273 272 270 254 246 246 249 255 258
194 193 222 266 284 300 263 240 223 225 224 216 241 254 272 281 272 263 265 257 253 264 268 265 266 264 266 262 260 257 267 279 259 249 262 266 259 258 257 253 244 244 251 256
188 195 220 258 337 249 252 195 209 232 245 229 242 261 264 262 275 277 261 243 264 272 272 272 270 273 278 271 267 270 276 268 251 246 257 260 253 255 258 246 242 245 252 243
197 186 202 213 249 269 281 244 193 219 266 233 237 260 273 301 322 290 258 258 266 271 275 272 271 273 274 274 268 263 275 265 246 245 248 250 248 253 252 248 249 249 246 251
165 185 199 209 238 250 255 248 209 148 273 262 229 252 265 9 284 274 299 309 301 302 298 289 295 298 282 287 282 247 261 259 256 254 254 252 248 248 245 245 247 254 251 253
188 206 217 224 240 262 258 236 130 189 261 307 268 264 250 227 243 277 307 314 310 305 303 307 312 307 291 294 266 259 268 268 276 282 265 256 250 251 248 248 248 238 254 253
195 198 210 204 228 253 199 146 188 230 296 302 289 277 265 271 284 292 301 305 308 311 321 330 331 322 323 315 232 263 279 289 299 291 275 266 259 261 264 246 256 238 228 237
206 201 206 208 229 263 191 207 231 261 280 286 286 283 269 276 280 293 299 299 304 306 315 331 322 325 331 324 287 270 295 309 309 302 289 278 274 268 247 222 232 239 224 226
248 218 222 259 263 267 263 266 285 284 279 291 289 284 279 275 280 293 295 299 307 312 309 326 335 329 325 327 322 299 308 314 308 300 308 299 262 284 284 255 232 227 232 232
230 184 222 257 280 307 277 250 262 280 283 289 299 288 272 264 277 286 293 298 304 310 320 323 304 305 311 324 324 327 329 340 342 329 320 325 321 263 279 281 253 248 245 237
197 190 203 241 240 234 268 266 268 275 280 276 285 296 301 272 273 286 294 299 306 317 336 339 330 320 320 330 330 337 345 349 345 333 332 326 322 311 298 320 329 319 294 292
Height
1478 1483 1485 1483 1483 1484 1486 1488 1489 1487 1484 1486 1486 1484 1483 1482 1483 1483 1484 1484 1485 1486 1488 1489 1490 1491 1493 1494 1496 1497 1499 1501 1502 1504 1506 1508 1510 1512 1514 1516 1519 1522 1524 1526
1483 1485 1482 1482 1483 1484 1485 1488 1488 1487 1485 1486 1486 1485 1481 1480 1481 1481 1481 1482 1483 1484 1484 1485 1487 1488 1489 1490 1492 1494 1495 1497 1499 1500 1502 1504 1506 1508 1511 1514 1516 1518 1521 1523
1483 1483 1481 1482 1484 1485 1485 1487 1487 1488 1487 1487 1488 1484 1480 1478 1478 1478 1479 1479 1480 1481 1481 1482 1483 1484 1486 1487 1488 1490 1491 1493 1495 1497 1499 1500 1502 1504 1507 1509 1511 1514 1517 1519
1484 1482 1482 1483 1484 1485 1486 1484 1485 1486 1490 1492 1490 1488 1479 1477 1478 1477 1477 1476 1477 1477 1478 1479 1480 1481 1482 1484 1485 1487 1488 1490 1491 1493 1495 1496 1497 1499 1501 1504 1507 1510 1513 1515
1484 1483 1482 1483 1483 1484 1484 1484 1486 1487 1491 1494 1492 1493 1480 1478 1477 1475 1474 1473 1474 1475 1476 1476 1477 1478 1480 1481 1482 1483 1485 1486 1487 1489 1491 1492 1494 1496 1499 1501 1503 1505 1508 1510
1483 1482 1482 1482 1482 1483 1484 1487 1489 1493 1494 1494 1490 1491 1479 1476 1471 1470 1470 1471 1471 1473 1473 1474 1474 1475 1477 1478 1479 1480 1481 1483 1484 1485 1487 1489 1490 1492 1494 1496 1498 1501 1503 1505
1485 1483 1482 1482 1483 1484 1485 1490 1494 1494 1496 1491 1489 1487 1476 1468 1467 1466 1467 1468 1469 1471 1471 1471 1472 1472 1473 1474 1475 1477 1478 1479 1480 1482 1483 1485 1487 1489 1490 1492 1494 1496 1498 1500
1490 1487 1483 1482 1483 1486 1487 1488 1494 1495 1497 1493 1490 1486 1473 1467 1465 1464 1465 1466 1467 1468 1468 1469 1469 1470 1471 1472 1472 1473 1474 1475 1476 1478 1479 1481 1483 1485 1486 1488 1490 1492 1494 1496
1490 1487 1482 1482 1482 1483 1487 1490 1490 1497 1500 1498 1489 1483 1473 1465 1464 1464 1464 1464 1465 1466 1466 1467 1467 1468 1468 1469 1469 1470 1471 1472 1473 1475 1475 1477 1478 1480 1482 1484 1485 1488 1490 1491
1486 1489 1484 1483 1483 1484 1486 1489 1494 1495 1495 1492 1484 1481 1472 1465 1463 1463 1463 1463 1463 1464 1464 1465 1465 1466 1466 1466 1467 1468 1469 1469 1471 1472 1472 1473 1474 1476 1478 1480 1481 1483 1485 1486
1484 1489 1488 1486 1486 1485 1488 1490 1491 1494 1494 1492 1487 1474 1463 1461 1460 1461 1461 1461 1462 1462 1462 1463 1463 1464 1464 1464 1464 1465 1466 1466 1467 1468 1468 1469 1470 1471 1473 1474 1476 1478 1480 1481
1483 1488 1490 1486 1483 1482 1484 1485 1489 1490 1492 1495 1489 1473 1460 1460 1459 1459 1459 1460 1460 1460 1460 1461 1461 1461 1461 1461 1461 1462 1462 1463 1463 1464 1465 1465 1466 1467 1468 1469 1471 1472 1474 1476
1482 1488 1488 1483 1485 1485 1484 1484 1484 1486 1489 1492 1489 1470 1460 1459 1458 1458 1458 1458 1458 1458 1458 1458 1458 1457 1457 1458 1458 1458 1459 1459 1460 1461 1461 1461 1462 1463 1464 1465 1466 1467 1469 1470
1478 1484 1484 1480 1476 1479 1482 1480 1481 1483 1484 1482 1475 1465 1460 1459 1458 1457 1456 1455 1455 1455 1455 1455 1454 1454 1454 1454 1455 1455 1455 1456 1456 1456 1457 1457 1458 1459 1460 1461 1462 1463 1464 1465
1477 1481 1480 1477 1475 1476 1476 1474 1476 1476 1474 1472 1463 1463 1455 1456 1456 1455 1454 1453 1452 1452 1451 1451 1451 1451 1450 1450 1451 1451 1451 1452 1452 1452 1453 1453 1454 1455 1456 1457 1458 1459 1460 1460
1477 1478 1478 1476 1473 1473 1472 1469 1469 1469 1468 1467 1464 1458 1452 1453 1453 1452 1451 1450 1449 1448 1448 1448 1448 1447 1447 1447 1447 1447 1447 1448 1448 1448 1449 1449 1450 1451 1452 1452 1453 1454 1455 1456
1478 1479 1478 1474 1473 1471 1468 1462 1463 1463 1462 1461 1458 1451 1451 1451 1450 1448 1447 1446 1446 1445 1445 1444 1444 1444 1444 1444 1444 1444 1444 1444 1444 1444 1445 1445 1446 1447 1447 1448 1449 1450 1450 1451
1474 1476 1476 1475 1476 1471 1456 1455 1455 1455 1454 1454 1451 1448 1448 1447 1446 1444 1444 1443 1443 1442 1442 1441 1441 1441 1441 1441 1440 1440 1440 1440 1440 1441 1441 1442 1442 1443 1443 1444 1444 1445 1446 1447
1469 1472 1475 1475 1473 1464 1457 1455 1455 1456 1451 1448 1447 1445 1445 1445 1443 1441 1441 1441 1440 1440 1439 1438 1438 1438 1437 1437 1437 1436 1436 1436 1436 1437 1437 1438 1438 1438 1439 1439 1440 1441 1442 1442
1469 1470 1473 1473 1470 1461 1452 1452 1451 1453 1450 1444 1443 1442 1442 1443 1445 1439 1438 1437 1436 1436 1435 1435 1435 1434 1434 1433 1433 1433 1432 1432 1432 1433 1433 1434 1434 1434 1434 1435 1436 1437 1437 1438
1471 1472 1471 1470 1467 1457 1452 1451 1451 1454 1446 1443 1441 1441 1441 1441 1440 1438 1435 1434 1434 1433 1432 1432 1431 1431 1431 1430 1430 1429 1429 1428 1429 1429 1429 1429 1430 1430 1430 1431 1431 1432 1433 1433
1465 1467 1468 1466 1464 1455 1449 1450 1450 1446 1443 1441 1440 1439 1438 1437 1436 1434 1433 1432 1431 1430 1429 1428 1428 1428 1427 1427 1426 1426 1426 1425 1425 1425 1425 1425 1425 1426 1426 1426 1427 1427 1428 1429
1461 1459 1457 1456 1451 1446 1445 1444 1443 1443 1441 1440 1439 1437 1436 1435 1433 1432 1431 1430 1429 1428 1427 1426 1426 1425 1424 1424 1423 1422 1422 1422 1421 1421 1421 1421 1421 1422 1423 1423 1423 1423 1424 1424
1457 1455 1455 1453 1445 1444 1442 1441 1441 1441 1439 1438 1437 1436 1434 1433 1431 1430 1429 1428 1427 1426 1425 1424 1423 1422 1421 1421 1420 1420 1419 1419 1418 1417 1417 1417 1418 1418 1419 1420 1420 1420 1420 1420
1451 1453 1453 1449 1444 1441 1439 1439 1439 1438 1437 1435 1435 1434 1433 1431 1429 1428 1427 1426 1425 1424 1423 1422 1421 1420 1419 1418 1418 1417 1416 1416 1415 1415 1414 1414 1415 1415 1416 1416 1417 1416 1417 1418
1447 1448 1448 1443 1440 1440 1437 1436 1436 1435 1434 1433 1432 1430 1430 1429 1427 1426 1425 1424 1423 1422 1421 1420 1419 1418 1417 1416 1415 1415 1414 1414 1413 1412 1412 1412 1412 1412 1412 1412 1413 1413 1414 1414